N3DXC Weather Reports


Display with metric or nautical units.
time (UTC)temp
F
wind
direction
speed
MPH
gust
MPH
rain 1hr
in
rain 24hr
in
rain mn
in
humidity
%
barometer
mb
20260509161939 51 220 11.0 21.0 0.00 0.00 0.00 94 1009.3
20260509161438 51 220 12.0 17.0 0.00 0.00 0.00 95 1009.3
20260509160938 51 237 12.0 18.0 0.00 0.00 0.00 94 1009.2
20260509160438 51 230 10.0 18.0 0.00 0.00 0.00 95 1009.2
20260509160016 51 201 9.0 16.0 0.00 0.00 0.00 95 1009.1
20260509155939 51 201 9.0 16.0 0.00 0.00 0.00 95 1009.1
20260509155438 51 217 10.0 15.0 0.00 0.00 0.00 95 1009.1
20260509154938 51 227 10.0 16.0 0.00 0.00 0.00 95 1009.1
20260509154438 51 229 10.0 16.0 0.00 0.00 0.00 95 1009.1
20260509153938 50 217 14.0 18.0 0.00 0.00 0.00 95 1009.0
20260509153438 51 217 10.0 14.0 0.00 0.00 0.00 95 1009.1
20260509152938 50 227 9.0 17.0 0.00 0.00 0.00 95 1009.1
20260509152438 50 234 11.0 17.0 0.00 0.00 0.00 95 1009.1
20260509151940 51 222 12.0 16.0 0.00 0.00 0.00 95 1009.0
20260509151438 50 223 13.0 17.0 0.00 0.00 0.00 95 1009.0
20260509150938 50 203 10.0 14.0 0.00 0.00 0.00 95 1009.1
20260509150438 50 202 10.0 17.0 0.00 0.00 0.00 95 1009.0
20260509145938 50 234 12.0 18.0 0.00 0.00 0.00 95 1009.1
20260509145438 50 222 13.0 17.0 0.00 0.00 0.00 95 1009.1
20260509144938 50 227 11.0 17.0 0.00 0.00 0.00 95 1009.0
20260509143939 50 208 12.0 19.0 0.00 0.00 0.00 95 1009.1
20260509143438 50 233 12.0 17.0 0.00 0.00 0.00 95 1009.1
20260509142938 50 237 15.0 17.0 0.00 0.00 0.00 95 1009.2
20260509142439 50 234 12.0 15.0 0.00 0.00 0.00 95 1009.2
20260509141938 50 233 8.0 15.0 0.00 0.00 0.00 95 1009.1
20260509141440 50 213 13.0 19.0 0.00 0.00 0.00 95 1009.2
20260509140939 50 239 10.0 20.0 0.00 0.00 0.00 96 1009.2
20260509140438 50 223 9.0 18.0 0.00 0.00 0.00 96 1009.2
20260509135938 50 199 10.0 12.0 0.00 0.00 0.00 96 1009.2
20260509135438 50 240 9.0 16.0 0.00 0.00 0.00 96 1009.2
20260509134938 50 219 8.0 12.0 0.00 0.00 0.00 96 1009.2
20260509134439 50 206 7.0 11.0 0.00 0.00 0.00 96 1009.2
20260509133938 49 201 11.0 15.0 0.00 0.00 0.00 96 1009.2
20260509133438 50 227 10.0 16.0 0.00 0.00 0.00 96 1009.2
20260509132938 49 205 8.0 13.0 0.00 0.00 0.00 96 1009.3
20260509132438 50 220 11.0 13.0 0.00 0.00 0.00 96 1009.4
20260509131938 49 209 10.0 13.0 0.00 0.00 0.00 96 1009.3
20260509131438 50 205 11.0 14.0 0.00 0.00 0.00 95 1009.4
20260509130938 49 223 9.0 12.0 0.00 0.00 0.00 95 1009.4
20260509130440 50 236 7.0 17.0 0.00 0.00 0.00 95 1009.4
20260509125940 49 196 15.0 16.0 0.00 0.00 0.00 95 1009.4
20260509125438 49 209 11.0 17.0 0.00 0.00 0.00 95 1009.5
20260509124938 50 244 13.0 13.0 0.00 0.00 0.00 95 1009.5
20260509124438 49 247 11.0 15.0 0.00 0.00 0.00 95 1009.5
20260509123939 49 192 9.0 15.0 0.00 0.00 0.00 95 1009.5
20260509123439 49 234 13.0 17.0 0.00 0.00 0.00 95 1009.6
20260509122938 49 250 7.0 16.0 0.00 0.00 0.00 95 1009.6
20260509122438 49 199 10.0 12.0 0.00 0.00 0.00 95 1009.4
20260509121938 49 220 6.0 13.0 0.00 0.00 0.00 95 1009.5
20260509121438 49 241 11.0 13.0 0.00 0.00 0.00 95 1009.6
20260509120938 49 227 9.0 14.0 0.00 0.00 0.00 95 1009.6
20260509120438 49 217 13.0 13.0 0.00 0.00 0.00 95 1009.5
20260509115939 49 209 11.0 14.0 0.00 0.00 0.00 95 1009.5
20260509115439 49 198 8.0 12.0 0.00 0.00 0.00 94 1009.5
20260509114939 49 226 9.0 15.0 0.00 0.00 0.00 94 1009.5
20260509114438 49 225 14.0 15.0 0.00 0.00 0.00 94 1009.5
20260509113941 49 226 14.0 16.0 0.00 0.00 0.00 94 1009.5
20260509113439 49 217 7.0 13.0 0.00 0.00 0.00 94 1009.5
20260509112938 49 209 9.0 13.0 0.00 0.00 0.00 94 1009.6
20260509112439 49 209 11.0 14.0 0.00 0.00 0.00 94 1009.5
20260509111939 49 229 6.0 11.0 0.00 0.00 0.00 94 1009.6
20260509111439 49 199 8.0 10.0 0.00 0.00 0.00 94 1009.6
20260509110939 49 239 8.0 10.0 0.00 0.00 0.00 94 1009.6
20260509110439 49 209 6.0 11.0 0.00 0.00 0.00 94 1009.5
20260509105939 49 213 4.0 12.0 0.00 0.00 0.00 94 1009.5
20260509105439 48 191 8.0 13.0 0.00 0.00 0.00 94 1009.5
20260509104939 48 213 9.0 14.0 0.00 0.00 0.00 94 1009.5
20260509104439 48 220 12.0 13.0 0.00 0.00 0.00 94 1009.5
20260509103939 48 189 10.0 14.0 0.00 0.00 0.00 94 1009.5
20260509103439 48 212 8.0 12.0 0.00 0.00 0.00 93 1009.5
20260509102939 48 174 9.0 13.0 0.00 0.00 0.00 93 1009.5
20260509102439 48 225 12.0 12.0 0.00 0.00 0.00 93 1009.6
20260509101939 48 202 8.0 14.0 0.00 0.00 0.00 93 1009.6
20260509101439 47 209 11.0 12.0 0.00 0.00 0.00 94 1009.6
20260509100940 47 226 8.0 12.0 0.00 0.00 0.00 95 1009.6
20260509100512 47 171 6.0 9.0 0.00 0.00 0.00 95 1009.8
20260509100439 47 171 6.0 9.0 0.00 0.00 0.00 95 1009.8
20260509095939 47 188 4.0 6.0 0.00 0.00 0.00 95 1009.8
20260509095439 47 181 3.0 5.0 0.00 0.00 0.00 96 1009.9
20260509094939 47 150 4.0 5.0 0.00 0.00 0.00 95 1009.9
20260509094440 47 160 1.0 5.0 0.00 0.00 0.00 95 1009.9
20260509093939 47 153 2.0 4.0 0.00 0.00 0.00 95 1009.9
20260509093440 47 144 3.0 4.0 0.00 0.00 0.00 95 1009.9
20260509092939 47 150 2.0 4.0 0.00 0.00 0.00 95 1009.9
20260509092512 47 144 2.0 3.0 0.00 0.00 0.00 95 1009.9
20260509092440 47 144 2.0 3.0 0.00 0.00 0.00 95 1009.9
20260509091939 47 142 2.0 3.0 0.00 0.00 0.00 95 1009.9
20260509091439 47 106 2.0 2.0 0.00 0.00 0.00 95 1010.0
20260509090939 47 52 2.0 2.0 0.00 0.00 0.00 95 1010.0
20260509090439 47 46 1.0 2.0 0.00 0.00 0.00 95 1010.1
20260509085939 47 54 2.0 3.0 0.00 0.00 0.00 95 1010.1
20260509085439 47 40 2.0 3.0 0.00 0.00 0.00 95 1010.1
20260509084940 47 53 3.0 3.0 0.00 0.00 0.00 95 1010.1
20260509084512 47 78 1.0 3.0 0.00 0.00 0.00 95 1010.1
20260509084439 47 78 1.0 3.0 0.00 0.00 0.00 95 1010.1
20260509083939 47 28 3.0 4.0 0.00 0.00 0.00 95 1010.2
20260509083439 47 4 2.0 4.0 0.00 0.00 0.00 95 1010.1
20260509082938 47 43 4.0 5.0 0.00 0.00 0.00 95 1010.0
20260509082513 47 40 2.0 5.0 0.00 0.00 0.00 95 1010.0
20260509082439 47 40 2.0 5.0 0.00 0.00 0.00 95 1010.0
20260509081939 47 68 3.0 8.0 0.00 0.00 0.00 96 1009.8
20260509081439 47 94 6.0 9.0 0.00 0.00 0.00 96 1009.6
20260509080939 47 95 7.0 8.0 0.00 0.00 0.00 96 1009.6
20260509080439 47 39 4.0 7.0 0.00 0.00 0.00 96 1009.8
20260509075941 47 64 3.0 4.0 0.00 0.00 0.00 96 1009.8
20260509075443 47 40 2.0 4.0 0.00 0.00 0.00 96 1009.8
20260509074939 47 28 1.0 4.0 0.00 0.00 0.00 96 1009.9
20260509074513 47 35 2.0 5.0 0.00 0.00 0.00 96 1009.8
20260509074441 47 35 2.0 5.0 0.00 0.00 0.00 96 1009.8
20260509073439 47 16 3.0 5.0 0.00 0.00 0.00 96 1009.9
20260509072940 47 32 4.0 5.0 0.00 0.00 0.00 96 1010.0
20260509072442 47 45 3.0 5.0 0.00 0.00 0.00 96 1010.1
20260509071940 47 36 3.0 5.0 0.00 0.00 0.00 96 1010.1
20260509070939 47 59 6.0 6.0 0.00 0.00 0.00 96 1010.1
20260509070439 47 56 3.0 6.0 0.00 0.00 0.00 96 1010.2
20260509065942 47 90 3.0 6.0 0.00 0.00 0.00 96 1010.3
20260509065439 47 70 3.0 8.0 0.00 0.00 0.00 96 1010.4
20260509064943 47 60 2.0 6.0 0.00 0.00 0.00 96 1010.5
20260509064439 47 99 4.0 7.0 0.00 0.00 0.00 96 1010.5
20260509063943 47 66 3.0 6.0 0.00 0.00 0.00 96 1010.6
20260509063442 47 56 7.0 8.0 0.00 0.00 0.00 96 1010.6
20260509062943 47 64 5.0 9.0 0.00 0.00 0.00 96 1010.7
20260509062441 47 95 7.0 8.0 0.00 0.00 0.00 96 1010.8
20260509061940 47 82 4.0 8.0 0.00 0.00 0.00 96 1010.9
20260509061439 47 73 7.0 7.0 0.00 0.00 0.00 96 1010.9
20260509060939 47 54 4.0 7.0 0.00 0.00 0.00 96 1010.9
20260509060440 47 77 6.0 7.0 0.00 0.00 0.00 96 1011.0
20260509055940 47 66 7.0 7.0 0.00 0.00 0.00 96 1011.0
20260509055442 47 78 5.0 9.0 0.00 0.00 0.00 96 1011.1
20260509054940 47 81 6.0 9.0 0.00 0.00 0.00 96 1011.3
20260509054440 47 95 8.0 8.0 0.00 0.00 0.00 96 1011.2
20260509053939 47 60 6.0 9.0 0.00 0.00 0.00 96 1011.2
20260509053440 47 91 7.0 8.0 0.00 0.00 0.00 96 1011.3
20260509052940 47 85 7.0 8.0 0.00 0.00 0.00 96 1011.3
20260509052440 47 94 6.0 7.0 0.00 0.00 0.00 96 1011.4
20260509051940 47 92 7.0 8.0 0.00 0.00 0.00 96 1011.4
20260509051441 47 87 3.0 7.0 0.00 0.00 0.00 96 1011.4
20260509050939 47 77 5.0 6.0 0.00 0.00 0.00 96 1011.6
20260509050441 47 59 6.0 8.0 0.00 0.00 0.00 96 1011.6
20260509045939 47 45 4.0 6.0 0.00 0.00 0.00 96 1011.7
20260509045441 47 56 5.0 6.0 0.00 0.00 0.00 96 1011.8
20260509044939 47 56 4.0 7.0 0.00 0.00 0.00 95 1011.9
20260509044515 47 82 7.0 7.0 0.00 0.00 0.00 95 1011.9
20260509044440 47 82 7.0 7.0 0.00 0.00 0.00 95 1011.9
20260509043939 47 46 5.0 7.0 0.00 0.00 0.00 95 1012.0
20260509043440 47 98 6.0 6.0 0.00 0.00 0.00 95 1012.0
20260509042939 47 91 3.0 4.0 0.00 0.00 0.00 95 1012.1
20260509042439 47 122 4.0 5.0 0.00 0.00 0.00 95 1012.2
20260509041939 47 123 3.0 5.0 0.00 0.00 0.00 95 1012.4
20260509041440 47 91 4.0 5.0 0.00 0.00 0.00 95 1012.5
20260509040939 47 32 0.0 4.0 0.00 0.00 0.00 95 1012.5
20260509040441 47 85 4.0 6.0 0.00 0.00 0.00 95 1012.6
20260509035941 47 29 0.0 0.0 0.00 0.00 0.00 95 1012.7
20260509035439 47 29 0.0 0.0 0.00 0.00 0.00 95 1012.8
20260509034939 47 29 0.0 1.0 0.00 0.00 0.00 95 1012.8
20260509034511 47 40 1.0 4.0 0.00 0.00 0.00 95 1012.7
20260509034440 47 40 1.0 4.0 0.00 0.00 0.00 95 1012.7
20260509033939 47 29 3.0 3.0 0.00 0.00 0.00 95 1012.8
20260509033441 47 22 2.0 2.0 0.00 0.00 0.00 95 1012.8
20260509032939 47 32 0.0 0.0 0.00 0.00 0.00 95 1012.9
20260509032440 47 32 0.0 1.0 0.00 0.00 0.00 95 1012.9
20260509031941 47 29 0.0 0.0 0.00 0.00 0.00 95 1012.9
20260509031440 47 29 0.0 2.0 0.00 0.00 0.00 95 1013.0
20260509030943 47 57 2.0 2.0 0.00 0.00 0.00 95 1013.0
20260509030514 47 35 1.0 2.0 0.00 0.00 0.00 95 1013.0
20260509030441 47 35 1.0 2.0 0.00 0.00 0.00 95 1013.0
20260509030143 47 81 1.0 2.0 0.00 0.00 0.00 95 1012.9
20260509025940 47 81 1.0 2.0 0.00 0.00 0.00 95 1012.9
20260509025440 47 46 2.0 2.0 0.00 0.00 0.00 95 1012.9
20260509024941 48 50 1.0 1.0 0.00 0.00 0.00 95 1013.0
20260509024440 47 14 1.0 3.0 0.00 0.00 0.00 95 1013.0
20260509023440 47 302 0.0 3.0 0.00 0.00 0.00 94 1013.1
20260509022940 48 1 2.0 3.0 0.00 0.00 0.00 95 1012.9
20260509022440 47 291 0.0 2.0 0.00 0.00 0.00 94 1013.0
20260509021940 48 12 0.0 0.0 0.00 0.00 0.00 94 1012.8
20260509021440 47 12 0.0 1.0 0.00 0.00 0.00 94 1012.8
20260509020940 48 50 1.0 1.0 0.00 0.00 0.00 94 1012.7
20260509020441 48 25 0.0 0.0 0.00 0.00 0.00 94 1012.6
20260509015940 47 25 0.0 2.0 0.00 0.00 0.00 94 1012.6
20260509015440 47 106 0.0 1.0 0.00 0.00 0.00 94 1012.5
20260509014940 47 36 1.0 3.0 0.00 0.00 0.00 94 1012.4
20260509014440 47 68 2.0 2.0 0.00 0.00 0.00 94 1012.4
20260509013940 47 60 2.0 2.0 0.00 0.00 0.00 94 1012.4
20260509013441 47 80 2.0 2.0 0.00 0.00 0.00 94 1012.5
20260509012940 47 303 0.0 0.0 0.00 0.00 0.00 94 1012.4
20260509012440 47 303 0.0 0.0 0.00 0.00 0.00 94 1012.4
20260509011940 47 303 0.0 0.0 0.00 0.00 0.00 93 1012.5
20260509011514 47 303 0.0 1.0 0.00 0.00 0.00 93 1012.2
20260509011440 47 303 0.0 1.0 0.00 0.00 0.00 93 1012.2
20260509010940 47 315 0.0 2.0 0.00 0.00 0.00 93 1012.2
20260509010441 48 338 2.0 3.0 0.00 0.00 0.00 93 1012.1
20260509005940 48 209 0.0 0.0 0.00 0.00 0.00 93 1012.0
20260509005512 48 209 0.0 0.0 0.00 0.00 0.00 93 1012.0
20260509005440 48 209 0.0 0.0 0.00 0.00 0.00 93 1012.0
20260509004940 48 226 0.0 1.0 0.00 0.00 0.00 92 1012.0
20260509004515 48 130 0.0 2.0 0.00 0.00 0.00 92 1011.9
20260509004440 48 130 0.0 2.0 0.00 0.00 0.00 92 1011.9
20260509003515 48 184 2.0 3.0 0.00 0.00 0.00 92 1012.0
20260509003441 48 184 2.0 3.0 0.00 0.00 0.00 92 1012.0
20260509002940 48 178 2.0 3.0 0.00 0.00 0.00 92 1011.9
20260509002440 48 167 3.0 3.0 0.00 0.00 0.00 92 1011.9
20260509001940 48 205 0.0 1.0 0.00 0.00 0.00 91 1011.9
20260509001440 48 236 1.0 3.0 0.00 0.00 0.00 91 1012.0
20260509000941 48 220 1.0 3.0 0.00 0.00 0.00 90 1012.1
20260509000441 48 232 3.0 3.0 0.00 0.00 0.00 90 1012.0
20260508235940 48 229 2.0 3.0 0.00 0.00 0.00 90 1012.0
20260508235440 48 253 2.0 2.0 0.00 0.00 0.00 90 1012.0
20260508234940 48 184 0.0 3.0 0.00 0.00 0.00 89 1012.0
20260508234441 48 234 3.0 5.0 0.00 0.00 0.00 89 1012.2
20260508234337 48 262 3.0 4.0 0.00 0.00 0.00 89 1012.0
20260508233940 48 262 3.0 4.0 0.00 0.00 0.00 89 1012.0
20260508233441 48 278 3.0 5.0 0.00 0.00 0.00 89 1012.0
20260508232940 49 285 1.0 4.0 0.00 0.00 0.00 88 1012.0
20260508232440 49 258 1.0 5.0 0.00 0.00 0.00 88 1011.9
20260508231940 49 251 5.0 6.0 0.00 0.00 0.00 88 1012.0
20260508231440 48 262 6.0 9.0 0.00 0.00 0.00 88 1012.1
20260508230942 48 247 5.0 7.0 0.00 0.00 0.00 87 1012.1
20260508230441 49 250 6.0 9.0 0.00 0.00 0.00 86 1012.0
20260508225940 48 265 6.0 9.0 0.00 0.00 0.00 86 1012.1
20260508225440 48 278 7.0 10.0 0.00 0.00 0.00 85 1012.1
20260508224940 49 262 5.0 12.0 0.00 0.00 0.00 85 1012.1
20260508224440 49 264 8.0 12.0 0.00 0.00 0.00 84 1012.2
20260508223940 49 286 6.0 13.0 0.00 0.00 0.00 83 1012.1
20260508223442 49 312 12.0 17.0 0.00 0.00 0.00 83 1012.2
20260508222940 49 296 14.0 19.0 0.00 0.00 0.00 82 1012.3
20260508222440 50 275 8.0 11.0 0.00 0.00 0.00 83 1012.3
20260508222013 51 250 13.0 16.0 0.00 0.00 0.00 79 1012.4
20260508221940 49 271 13.0 19.0 0.00 0.00 0.00 82 1012.4
20260508221440 51 250 13.0 16.0 0.00 0.00 0.00 79 1012.4
20260508220940 51 254 11.0 13.0 0.00 0.00 0.00 77 1012.4
20260508220441 52 240 13.0 13.0 0.00 0.00 0.00 76 1012.2
20260508215940 52 243 8.0 14.0 0.00 0.00 0.00 75 1012.2
20260508215440 52 240 7.0 14.0 0.00 0.00 0.00 74 1012.1
20260508214943 52 267 9.0 14.0 0.00 0.00 0.00 74 1012.1
20260508214441 52 234 7.0 10.0 0.00 0.00 0.00 74 1012.1
20260508213940 52 239 7.0 11.0 0.00 0.00 0.00 74 1012.1
20260508213441 53 232 9.0 12.0 0.00 0.00 0.00 75 1012.0
20260508212941 52 246 11.0 13.0 0.00 0.00 0.00 75 1012.1
20260508212440 52 260 7.0 13.0 0.00 0.00 0.00 75 1012.0
20260508211941 52 234 7.0 13.0 0.00 0.00 0.00 74 1012.1
20260508211440 52 248 10.0 13.0 0.00 0.00 0.00 75 1012.3
20260508210943 52 244 13.0 18.0 0.00 0.00 0.00 73 1012.3
20260508210441 52 241 10.0 16.0 0.00 0.00 0.00 74 1012.2
20260508205944 52 268 10.0 17.0 0.00 0.00 0.00 74 1012.1
20260508205440 52 272 15.0 21.0 0.00 0.00 0.00 73 1012.1
20260508204941 52 229 14.0 21.0 0.00 0.00 0.00 73 1012.0
20260508204441 52 251 12.0 23.0 0.00 0.00 0.00 74 1012.1
20260508203941 52 236 17.0 18.0 0.00 0.00 0.00 75 1012.2
20260508203442 52 234 12.0 18.0 0.00 0.00 0.00 76 1012.1
20260508202941 52 229 14.0 23.0 0.00 0.00 0.00 77 1012.1
20260508202440 52 244 14.0 15.0 0.00 0.00 0.00 80 1012.2
20260508201941 52 219 10.0 11.0 0.00 0.00 0.00 81 1012.2
20260508201441 52 253 10.0 11.0 0.00 0.00 0.00 81 1012.2
20260508200941 52 244 9.0 11.0 0.00 0.00 0.00 81 1012.2
20260508200441 52 243 7.0 11.0 0.00 0.00 0.00 82 1012.2
20260508195941 52 258 8.0 11.0 0.00 0.00 0.00 82 1012.3
20260508195441 52 274 8.0 12.0 0.00 0.00 0.00 83 1012.3
20260508195015 52 254 5.0 11.0 0.00 0.00 0.00 83 1012.3
20260508194941 52 254 5.0 11.0 0.00 0.00 0.00 83 1012.3
20260508194440 51 275 6.0 8.0 0.00 0.00 0.00 83 1012.4
20260508193941 51 286 5.0 11.0 0.00 0.00 0.00 84 1012.4
20260508193443 51 257 10.0 11.0 0.00 0.00 0.00 84 1012.4
20260508193015 50 258 6.0 10.0 0.00 0.00 0.00 84 1012.5
20260508192941 50 258 6.0 10.0 0.00 0.00 0.00 84 1012.5
20260508192441 50 248 7.0 13.0 0.00 0.00 0.00 83 1012.6
20260508191941 49 240 10.0 18.0 0.00 0.00 0.00 82 1012.7
20260508191440 50 227 8.0 19.0 0.00 0.00 0.00 81 1012.7
20260508191014 51 237 19.0 29.0 0.00 0.00 0.00 78 1012.6
20260508190941 51 237 19.0 29.0 0.00 0.00 0.00 78 1012.6
20260508190442 52 232 25.0 27.0 0.00 0.00 0.00 71 1012.5
20260508185941 53 244 14.0 16.0 0.00 0.00 0.00 67 1012.3
20260508185441 54 236 10.0 17.0 0.00 0.00 0.00 63 1012.3
20260508184941 55 225 14.0 15.0 0.00 0.00 0.00 62 1012.3
20260508184441 55 246 9.0 15.0 0.00 0.00 0.00 60 1012.2
20260508183941 55 248 9.0 15.0 0.00 0.00 0.00 59 1012.1
20260508183441 55 247 14.0 18.0 0.00 0.00 0.00 58 1012.0
20260508182941 55 255 21.0 22.0 0.00 0.00 0.00 55 1011.9
20260508182441 57 230 6.0 9.0 0.00 0.00 0.00 56 1012.0
20260508181941 56 289 4.0 15.0 0.00 0.00 0.00 57 1012.1
20260508181441 55 244 12.0 16.0 0.00 0.00 0.00 58 1012.1
20260508180942 55 262 6.0 14.0 0.00 0.00 0.00 58 1012.3
20260508180443 55 289 7.0 20.0 0.00 0.00 0.00 57 1012.3
20260508175941 56 253 14.0 15.0 0.00 0.00 0.00 53 1012.3
20260508175516 56 243 11.0 19.0 0.00 0.00 0.00 51 1012.1
20260508175441 56 243 11.0 19.0 0.00 0.00 0.00 51 1012.1
20260508174941 56 234 16.0 20.0 0.00 0.00 0.00 50 1012.1
20260508174441 57 279 15.0 19.0 0.00 0.00 0.00 50 1012.1
20260508173942 57 277 16.0 25.0 0.00 0.00 0.00 49 1012.2
20260508173441 57 251 14.0 23.0 0.00 0.00 0.00 49 1012.1
20260508172941 58 258 16.0 25.0 0.00 0.00 0.00 48 1012.2
20260508172441 58 227 15.0 25.0 0.00 0.00 0.00 49 1012.3
20260508171941 58 251 9.0 11.0 0.00 0.00 0.00 52 1012.5
20260508171441 57 257 7.0 19.0 0.00 0.00 0.00 49 1012.6
20260508170941 57 272 14.0 18.0 0.00 0.00 0.00 50 1012.6
20260508170441 56 253 14.0 19.0 0.00 0.00 0.00 51 1012.7
20260508165941 57 248 8.0 24.0 0.00 0.00 0.00 52 1012.8
20260508165441 57 285 8.0 13.0 0.00 0.00 0.00 56 1012.8
20260508164941 56 298 14.0 17.0 0.00 0.00 0.00 53 1012.8
20260508164442 56 243 14.0 19.0 0.00 0.00 0.00 54 1012.7
20260508163941 57 236 17.0 17.0 0.00 0.00 0.00 56 1012.9
20260508163441 55 274 15.0 18.0 0.00 0.00 0.00 55 1012.9
20260508162941 55 240 7.0 8.0 0.00 0.00 0.00 59 1013.1
20260508162441 53 272 5.0 10.0 0.00 0.00 0.00 59 1013.3